| time (UTC) | temp F | wind direction | speed knots | gust knots | rain 1hr in | rain 24hr in | rain mn in | humidity % | barometer mb |
| 20260506135222 | 56 | 242 | 1.7 | 1.7 | 0.00 | 0.02 | 0.02 | 89 | 1008.9 |
| 20260506134719 | 57 | 244 | 0.9 | 1.7 | 0.00 | 0.02 | 0.02 | 87 | 1008.9 |
| 20260506134215 | 56 | 230 | 0.0 | 0.9 | 0.00 | 0.02 | 0.02 | 88 | 1008.7 |
| 20260506133713 | 56 | 157 | 0.0 | 0.9 | 0.00 | 0.02 | 0.02 | 88 | 1008.7 |
| 20260506133209 | 56 | 253 | 0.0 | 1.7 | 0.00 | 0.02 | 0.02 | 89 | 1008.8 |
| 20260506132706 | 56 | 230 | 0.9 | 0.9 | 0.00 | 0.02 | 0.02 | 93 | 1009.0 |
| 20260506132203 | 55 | 269 | 0.0 | 1.7 | 0.00 | 0.02 | 0.02 | 92 | 1008.9 |
| 20260506131701 | 55 | 286 | 1.7 | 1.7 | 0.00 | 0.02 | 0.02 | 92 | 1008.8 |
| 20260506131156 | 55 | 281 | 1.7 | 1.7 | 0.00 | 0.02 | 0.02 | 92 | 1009.2 |
| 20260506130653 | 55 | 269 | 0.0 | 0.0 | 0.00 | 0.02 | 0.02 | 93 | 1009.1 |
| 20260506130151 | 55 | 103 | 0.0 | 0.9 | 0.00 | 0.02 | 0.02 | 92 | 1009.2 |
| 20260506125649 | 55 | 309 | 0.0 | 1.7 | 0.00 | 0.02 | 0.02 | 91 | 1009.3 |
| 20260506125146 | 55 | 247 | 0.9 | 1.7 | 0.00 | 0.02 | 0.02 | 92 | 1009.5 |
| 20260506124644 | 55 | 307 | 0.0 | 0.9 | 0.00 | 0.02 | 0.02 | 93 | 1009.6 |
| 20260506124142 | 55 | 259 | 1.7 | 1.7 | 0.00 | 0.02 | 0.02 | 93 | 1009.5 |
| 20260506123639 | 55 | 247 | 0.9 | 0.9 | 0.00 | 0.02 | 0.02 | 94 | 1009.5 |
| 20260506123138 | 55 | 273 | 1.7 | 1.7 | 0.00 | 0.02 | 0.02 | 95 | 1009.6 |
| 20260506122634 | 55 | 309 | 0.9 | 0.9 | 0.00 | 0.02 | 0.02 | 95 | 1009.5 |
| 20260506122132 | 55 | 306 | 0.0 | 0.9 | 0.00 | 0.02 | 0.02 | 95 | 1009.5 |
| 20260506121629 | 55 | 173 | 0.0 | 0.0 | 0.00 | 0.02 | 0.02 | 94 | 1009.2 |
| 20260506121125 | 54 | 145 | 0.0 | 0.9 | 0.00 | 0.02 | 0.02 | 93 | 1009.5 |
| 20260506120624 | 54 | 283 | 0.0 | 0.9 | 0.00 | 0.02 | 0.02 | 92 | 1009.4 |
| 20260506120121 | 54 | 281 | 1.7 | 1.7 | 0.00 | 0.02 | 0.02 | 93 | 1009.6 |
| 20260506115619 | 54 | 299 | 1.7 | 3.5 | 0.00 | 0.02 | 0.02 | 94 | 1009.7 |
| 20260506115117 | 54 | 261 | 3.5 | 3.5 | 0.00 | 0.02 | 0.02 | 97 | 1009.5 |
| 20260506114614 | 54 | 199 | 0.0 | 0.9 | 0.00 | 0.02 | 0.02 | 98 | 1009.5 |
| 20260506114112 | 54 | 247 | 1.7 | 1.7 | 0.00 | 0.02 | 0.02 | 98 | 1009.5 |
| 20260506113610 | 53 | 309 | 0.0 | 0.9 | 0.00 | 0.02 | 0.02 | 98 | 1009.4 |
| 20260506113107 | 54 | 224 | 0.0 | 0.9 | 0.00 | 0.02 | 0.02 | 98 | 1009.2 |
| 20260506112603 | 53 | 124 | 0.0 | 0.0 | 0.00 | 0.02 | 0.02 | 98 | 1009.2 |
| 20260506112101 | 53 | 116 | 0.0 | 0.9 | 0.00 | 0.02 | 0.02 | 98 | 1009.3 |
| 20260506111558 | 53 | 347 | 0.0 | 1.7 | 0.00 | 0.02 | 0.02 | 98 | 1009.5 |
| 20260506111055 | 53 | 310 | 0.0 | 1.7 | 0.00 | 0.02 | 0.02 | 98 | 1009.5 |
| 20260506110553 | 53 | 235 | 0.0 | 0.0 | 0.00 | 0.02 | 0.02 | 98 | 1009.2 |
| 20260506110050 | 53 | 235 | 0.0 | 0.0 | 0.00 | 0.02 | 0.02 | 98 | 1009.4 |
| 20260506105546 | 53 | 256 | 0.0 | 0.0 | 0.00 | 0.02 | 0.02 | 98 | 1009.5 |
| 20260506105044 | 53 | 110 | 0.9 | 1.7 | 0.00 | 0.02 | 0.02 | 98 | 1009.5 |
| 20260506104542 | 52 | 105 | 0.9 | 1.7 | 0.00 | 0.02 | 0.02 | 98 | 1009.5 |
| 20260506104039 | 52 | 112 | 0.0 | 0.9 | 0.00 | 0.02 | 0.02 | 98 | 1009.4 |
| 20260506103536 | 52 | 120 | 0.0 | 0.9 | 0.00 | 0.02 | 0.02 | 98 | 1009.5 |
| 20260506103033 | 52 | 124 | 0.0 | 0.0 | 0.00 | 0.02 | 0.02 | 98 | 1009.3 |
| 20260506102531 | 52 | 117 | 0.9 | 1.7 | 0.00 | 0.02 | 0.02 | 98 | 1009.3 |
| 20260506102028 | 52 | 103 | 0.0 | 0.9 | 0.00 | 0.02 | 0.02 | 98 | 1009.4 |
| 20260506101525 | 52 | 96 | 0.9 | 1.7 | 0.00 | 0.02 | 0.02 | 98 | 1009.4 |
| 20260506101022 | 51 | 88 | 1.7 | 1.7 | 0.00 | 0.02 | 0.02 | 98 | 1009.6 |
| 20260506100520 | 51 | 135 | 0.0 | 1.7 | 0.00 | 0.02 | 0.02 | 98 | 1009.6 |
| 20260506100018 | 51 | 106 | 0.0 | 0.0 | 0.00 | 0.02 | 0.02 | 98 | 1009.4 |
| 20260506095517 | 51 | 142 | 0.0 | 0.9 | 0.00 | 0.02 | 0.02 | 97 | 1009.2 |
| 20260506095012 | 51 | 212 | 0.0 | 0.9 | 0.00 | 0.02 | 0.02 | 97 | 1009.1 |
| 20260506094511 | 51 | 107 | 0.0 | 0.0 | 0.00 | 0.02 | 0.02 | 97 | 1009.0 |
| 20260506094008 | 52 | 92 | 0.9 | 1.7 | 0.00 | 0.02 | 0.02 | 97 | 1009.2 |
| 20260506093506 | 52 | 118 | 1.7 | 1.7 | 0.00 | 0.02 | 0.02 | 97 | 1009.1 |
| 20260506093004 | 52 | 304 | 0.0 | 0.9 | 0.00 | 0.02 | 0.02 | 97 | 1009.7 |
| 20260506092501 | 52 | 252 | 0.0 | 0.0 | 0.00 | 0.02 | 0.02 | 97 | 1009.5 |
| 20260506091957 | 52 | 328 | 0.0 | 0.9 | 0.00 | 0.02 | 0.02 | 97 | 1009.5 |
| 20260506091456 | 52 | 293 | 0.0 | 0.0 | 0.00 | 0.02 | 0.02 | 97 | 1009.3 |
| 20260506090953 | 52 | 67 | 0.9 | 1.7 | 0.00 | 0.02 | 0.02 | 96 | 1009.1 |
| 20260506090451 | 52 | 326 | 0.0 | 0.0 | 0.00 | 0.02 | 0.02 | 96 | 1008.9 |
| 20260506085946 | 52 | 89 | 0.0 | 1.7 | 0.00 | 0.02 | 0.02 | 96 | 1008.8 |
| 20260506085444 | 52 | 89 | 0.0 | 0.9 | 0.00 | 0.02 | 0.02 | 96 | 1008.8 |
| 20260506084940 | 52 | 114 | 0.0 | 0.9 | 0.00 | 0.02 | 0.02 | 96 | 1009.2 |
| 20260506084437 | 52 | 246 | 0.0 | 0.9 | 0.00 | 0.02 | 0.02 | 95 | 1008.8 |
| 20260506083933 | 52 | 278 | 0.0 | 1.7 | 0.00 | 0.02 | 0.02 | 95 | 1008.9 |
| 20260506083431 | 53 | 57 | 0.9 | 1.7 | 0.00 | 0.02 | 0.02 | 93 | 1008.9 |
| 20260506082928 | 53 | 122 | 1.7 | 1.7 | 0.00 | 0.02 | 0.02 | 91 | 1009.2 |
| 20260506082425 | 54 | 302 | 0.0 | 4.3 | 0.00 | 0.02 | 0.02 | 87 | 1008.9 |
| 20260506081920 | 55 | 287 | 2.6 | 3.5 | 0.02 | 0.02 | 0.02 | 85 | 1009.0 |
| 20260506081419 | 54 | 273 | 5.2 | 6.1 | 0.02 | 0.02 | 0.02 | 85 | 1009.3 |
| 20260506080916 | 54 | 293 | 2.6 | 2.6 | 0.00 | 0.01 | 0.01 | 88 | 1009.5 |
| 20260506080412 | 54 | 272 | 1.7 | 3.5 | 0.00 | 0.01 | 0.01 | 88 | 1009.4 |
| 20260506073356 | 53 | 191 | 0.0 | 0.0 | 0.00 | 0.01 | 0.01 | 99 | 1009.4 |
| 20260506072853 | 53 | 191 | 0.0 | 0.9 | 0.00 | 0.01 | 0.01 | 99 | 1009.4 |
| 20260506072351 | 53 | 66 | 0.0 | 0.9 | 0.00 | 0.01 | 0.01 | 99 | 1009.0 |
| 20260506071848 | 53 | 6 | 0.0 | 0.0 | 0.00 | 0.01 | 0.01 | 99 | 1009.1 |
| 20260506071347 | 53 | 66 | 0.0 | 1.7 | 0.00 | 0.01 | 0.01 | 99 | 1009.2 |
| 20260506070843 | 53 | 89 | 0.0 | 0.9 | 0.00 | 0.01 | 0.01 | 99 | 1009.1 |
| 20260506070340 | 53 | 199 | 0.0 | 1.7 | 0.00 | 0.01 | 0.01 | 99 | 1009.1 |
| 20260506062317 | 54 | 113 | 0.0 | 1.7 | 0.02 | 0.01 | 0.01 | 99 | 1008.5 |
| 20260506061813 | 54 | 135 | 0.0 | 0.9 | 0.00 | 0.01 | 0.01 | 99 | 1008.8 |
| 20260506061310 | 54 | 283 | 0.0 | 0.9 | 0.00 | 0.01 | 0.01 | 99 | 1008.9 |
| 20260506060808 | 54 | 323 | 1.7 | 3.5 | 0.00 | 0.01 | 0.01 | 99 | 1008.8 |
| 20260506060306 | 54 | 320 | 0.9 | 1.7 | 0.00 | 0.01 | 0.01 | 99 | 1009.0 |
| 20260506051237 | 53 | 76 | 0.0 | 1.7 | 0.00 | 0.01 | 0.01 | 98 | 1007.9 |
| 20260506050735 | 54 | 61 | 0.0 | 0.9 | 0.00 | 0.01 | 0.01 | 98 | 1007.7 |
| 20260506050232 | 53 | 50 | 0.0 | 1.7 | 0.00 | 0.01 | 0.01 | 98 | 1007.9 |
| 20260506044723 | 54 | 99 | 0.9 | 0.9 | 0.02 | 0.01 | 0.01 | 98 | 1007.9 |
| 20260506044221 | 53 | 283 | 0.0 | 0.9 | 0.02 | 0.01 | 0.01 | 98 | 1007.8 |
| 20260506043718 | 53 | 64 | 0.0 | 0.9 | 0.00 | 0.00 | 0.00 | 98 | 1007.9 |
| 20260506043215 | 54 | 49 | 0.0 | 0.9 | 0.00 | 0.00 | 0.00 | 98 | 1008.0 |
| 20260506042714 | 54 | 73 | 1.7 | 1.7 | 0.02 | 0.00 | 0.00 | 98 | 1008.1 |
| 20260506042212 | 54 | 89 | 0.9 | 1.7 | 0.02 | 0.00 | 0.00 | 98 | 1008.4 |
| 20260506041710 | 54 | 120 | 0.9 | 0.9 | 0.00 | 0.00 | 0.00 | 98 | 1008.2 |
| 20260506041207 | 54 | 85 | 0.0 | 0.9 | 0.00 | 0.00 | 0.00 | 98 | 1008.1 |
| 20260506040704 | 54 | 85 | 0.0 | 1.7 | 0.00 | 0.00 | 0.00 | 98 | 1007.9 |
| 20260506040201 | 54 | 115 | 1.7 | 1.7 | 0.00 | 0.00 | 0.00 | 98 | 1008.0 |
| 20260506035658 | 54 | 102 | 0.9 | 1.7 | 0.00 | 0.15 | 0.15 | 98 | 1008.1 |
| 20260506035155 | 54 | 129 | 0.0 | 0.0 | 0.00 | 0.15 | 0.15 | 98 | 1008.1 |
| 20260506034651 | 53 | 98 | 0.0 | 0.9 | 0.00 | 0.15 | 0.15 | 98 | 1007.8 |
| 20260506034149 | 54 | 67 | 0.0 | 1.7 | 0.00 | 0.15 | 0.15 | 98 | 1007.9 |
| 20260506033646 | 53 | 89 | 0.9 | 1.7 | 0.00 | 0.15 | 0.15 | 98 | 1007.7 |
| 20260506033143 | 54 | 126 | 0.0 | 1.7 | 0.00 | 0.15 | 0.15 | 98 | 1007.8 |
| 20260506032640 | 54 | 93 | 0.0 | 0.0 | 0.00 | 0.15 | 0.15 | 98 | 1007.7 |
| 20260506032137 | 54 | 22 | 0.0 | 0.0 | 0.00 | 0.15 | 0.15 | 98 | 1007.8 |
| 20260506031634 | 54 | 309 | 0.0 | 0.0 | 0.00 | 0.15 | 0.15 | 98 | 1007.6 |
| 20260506031131 | 55 | 42 | 0.0 | 0.0 | 0.00 | 0.15 | 0.15 | 98 | 1007.6 |
| 20260506030629 | 55 | 306 | 0.0 | 0.0 | 0.00 | 0.15 | 0.15 | 98 | 1007.5 |
| 20260506030126 | 55 | 336 | 0.0 | 0.9 | 0.00 | 0.15 | 0.15 | 98 | 1007.7 |
| 20260506025623 | 55 | 129 | 0.0 | 0.9 | 0.00 | 0.15 | 0.15 | 98 | 1007.8 |
| 20260506025119 | 55 | 322 | 1.7 | 1.7 | 0.00 | 0.15 | 0.15 | 98 | 1007.9 |
| 20260506024617 | 55 | 319 | 1.7 | 1.7 | 0.00 | 0.15 | 0.15 | 98 | 1008.0 |
| 20260506024112 | 56 | 320 | 0.0 | 1.7 | 0.00 | 0.15 | 0.15 | 98 | 1007.8 |
| 20260506023609 | 55 | 101 | 1.7 | 2.6 | 0.00 | 0.15 | 0.15 | 98 | 1007.7 |
| 20260506023107 | 55 | 315 | 0.0 | 1.7 | 0.02 | 0.15 | 0.15 | 98 | 1007.6 |
| 20260506022604 | 55 | 100 | 0.9 | 1.7 | 0.02 | 0.15 | 0.15 | 98 | 1007.5 |
| 20260506022101 | 55 | 9 | 0.0 | 0.9 | 0.02 | 0.15 | 0.15 | 98 | 1008.0 |
| 20260506021559 | 56 | 100 | 0.9 | 1.7 | 0.02 | 0.15 | 0.15 | 98 | 1008.0 |
| 20260506021055 | 55 | 103 | 0.9 | 1.7 | 0.00 | 0.14 | 0.14 | 97 | 1008.2 |
| 20260506020553 | 55 | 94 | 1.7 | 1.7 | 0.00 | 0.14 | 0.14 | 97 | 1008.2 |
| 20260506020050 | 55 | 98 | 0.0 | 1.7 | 0.00 | 0.14 | 0.14 | 97 | 1008.0 |
| 20260506015548 | 55 | 94 | 1.7 | 1.7 | 0.00 | 0.14 | 0.14 | 97 | 1007.8 |
| 20260506015044 | 55 | 32 | 0.0 | 0.9 | 0.00 | 0.14 | 0.14 | 97 | 1008.1 |
| 20260506014542 | 56 | 95 | 1.7 | 1.7 | 0.00 | 0.14 | 0.14 | 97 | 1008.0 |
| 20260506014037 | 56 | 129 | 0.0 | 0.0 | 0.00 | 0.14 | 0.14 | 97 | 1008.0 |
| 20260506013536 | 56 | 326 | 1.7 | 1.7 | 0.00 | 0.14 | 0.14 | 97 | 1007.9 |
| 20260506013032 | 56 | 336 | 0.0 | 1.7 | 0.00 | 0.14 | 0.14 | 97 | 1007.8 |
| 20260506012528 | 56 | 312 | 0.0 | 0.0 | 0.00 | 0.14 | 0.14 | 97 | 1007.7 |
| 20260506012025 | 56 | 346 | 0.9 | 1.7 | 0.00 | 0.14 | 0.14 | 97 | 1007.6 |
| 20260506011523 | 56 | 254 | 0.9 | 0.9 | 0.00 | 0.14 | 0.14 | 97 | 1007.5 |
| 20260506011019 | 56 | 269 | 0.0 | 1.7 | 0.00 | 0.14 | 0.14 | 97 | 1007.7 |
| 20260506010519 | 57 | 38 | 0.0 | 0.9 | 0.00 | 0.14 | 0.14 | 97 | 1007.7 |
| 20260506010015 | 57 | 110 | 0.0 | 0.9 | 0.00 | 0.14 | 0.14 | 97 | 1007.5 |
| 20260506005512 | 57 | 103 | 0.9 | 1.7 | 0.00 | 0.14 | 0.14 | 97 | 1007.5 |
| 20260506005007 | 57 | 334 | 1.7 | 1.7 | 0.00 | 0.14 | 0.14 | 96 | 1007.3 |
| 20260506004506 | 57 | 91 | 1.7 | 1.7 | 0.00 | 0.14 | 0.14 | 96 | 1006.9 |
| 20260506004001 | 57 | 126 | 1.7 | 1.7 | 0.00 | 0.14 | 0.14 | 96 | 1006.8 |
| 20260506003458 | 57 | 49 | 0.0 | 0.9 | 0.00 | 0.14 | 0.14 | 96 | 1006.7 |
| 20260506002954 | 57 | 230 | 0.9 | 1.7 | 0.00 | 0.14 | 0.14 | 96 | 1006.7 |
| 20260506002451 | 57 | 113 | 0.9 | 1.7 | 0.00 | 0.14 | 0.14 | 96 | 1007.0 |
| 20260506001946 | 57 | 44 | 0.0 | 0.9 | 0.00 | 0.14 | 0.14 | 96 | 1007.0 |
| 20260506001443 | 57 | 117 | 0.0 | 1.7 | 0.00 | 0.14 | 0.14 | 95 | 1006.7 |
| 20260506000940 | 57 | 111 | 0.0 | 1.7 | 0.00 | 0.14 | 0.14 | 95 | 1006.7 |
| 20260506000438 | 57 | 105 | 0.9 | 0.9 | 0.00 | 0.14 | 0.14 | 95 | 1006.6 |
| 20260505235935 | 57 | 246 | 0.9 | 1.7 | 0.00 | 0.14 | 0.14 | 94 | 1006.7 |
| 20260505235433 | 57 | 39 | 0.0 | 1.7 | 0.00 | 0.14 | 0.14 | 94 | 1006.6 |
| 20260505234929 | 58 | 141 | 0.0 | 0.9 | 0.00 | 0.14 | 0.14 | 94 | 1006.6 |
| 20260505234427 | 58 | 327 | 1.7 | 1.7 | 0.00 | 0.14 | 0.14 | 93 | 1006.7 |
| 20260505233923 | 58 | 327 | 0.0 | 1.7 | 0.00 | 0.14 | 0.14 | 93 | 1006.6 |
| 20260505233421 | 58 | 101 | 1.7 | 1.7 | 0.00 | 0.14 | 0.14 | 94 | 1006.6 |
| 20260505232918 | 58 | 315 | 0.0 | 1.7 | 0.00 | 0.14 | 0.14 | 93 | 1006.4 |
| 20260505232416 | 58 | 133 | 0.0 | 1.7 | 0.00 | 0.14 | 0.14 | 92 | 1006.4 |
| 20260505231912 | 58 | 322 | 0.0 | 0.9 | 0.00 | 0.14 | 0.14 | 92 | 1006.3 |
| 20260505231410 | 58 | 37 | 0.0 | 1.7 | 0.00 | 0.14 | 0.14 | 91 | 1006.3 |
| 20260505230908 | 59 | 315 | 0.0 | 3.5 | 0.05 | 0.14 | 0.14 | 89 | 1005.8 |
| 20260505230406 | 59 | 216 | 3.5 | 4.3 | 0.07 | 0.14 | 0.14 | 84 | 1006.8 |
| 20260505225902 | 60 | 262 | 3.5 | 7.8 | 0.07 | 0.13 | 0.13 | 83 | 1006.8 |
| 20260505225359 | 60 | 263 | 5.2 | 11.3 | 0.02 | 0.13 | 0.13 | 81 | 1006.7 |
| 20260505224854 | 61 | 256 | 5.2 | 15.6 | 0.00 | 0.12 | 0.12 | 79 | 1006.6 |
| 20260505224352 | 61 | 258 | 7.8 | 14.8 | 0.00 | 0.12 | 0.12 | 78 | 1006.2 |
| 20260505223849 | 60 | 297 | 13.9 | 17.4 | 0.02 | 0.12 | 0.12 | 79 | 1006.0 |
| 20260505223346 | 60 | 278 | 5.2 | 6.1 | 0.02 | 0.12 | 0.12 | 82 | 1006.0 |
| 20260505222842 | 60 | 306 | 9.6 | 12.2 | 0.00 | 0.12 | 0.12 | 82 | 1005.8 |
| 20260505222338 | 60 | 257 | 3.5 | 13.9 | 0.00 | 0.12 | 0.12 | 82 | 1006.0 |
| 20260505221835 | 60 | 295 | 5.2 | 7.8 | 0.00 | 0.12 | 0.12 | 84 | 1005.7 |
| 20260505221332 | 60 | 280 | 2.6 | 6.1 | 0.02 | 0.12 | 0.12 | 86 | 1005.8 |
| 20260505220829 | 60 | 302 | 5.2 | 13.0 | 0.07 | 0.12 | 0.12 | 86 | 1005.9 |
| 20260505220326 | 60 | 305 | 11.3 | 16.5 | 0.09 | 0.11 | 0.11 | 86 | 1006.0 |
| 20260505215824 | 60 | 273 | 8.7 | 16.5 | 0.26 | 0.11 | 0.11 | 88 | 1005.9 |
| 20260505215322 | 60 | 293 | 14.8 | 18.2 | 0.57 | 0.09 | 0.09 | 89 | 1005.8 |
| 20260505214819 | 61 | 293 | 14.8 | 24.3 | 0.38 | 0.06 | 0.06 | 82 | 1005.5 |
| 20260505214317 | 71 | 271 | 7.0 | 19.1 | 0.00 | 0.00 | 0.00 | 54 | 1004.9 |
| 20260505213813 | 75 | 280 | 7.8 | 9.6 | 0.00 | 0.00 | 0.00 | 41 | 1003.8 |
| 20260505213312 | 76 | 108 | 5.2 | 7.0 | 0.00 | 0.00 | 0.00 | 40 | 1002.9 |
| 20260505212807 | 76 | 269 | 0.0 | 3.5 | 0.00 | 0.00 | 0.00 | 37 | 1002.8 |
| 20260505212306 | 77 | 242 | 4.3 | 10.4 | 0.00 | 0.00 | 0.00 | 34 | 1002.5 |
| 20260505211800 | 77 | 249 | 6.1 | 11.3 | 0.00 | 0.00 | 0.00 | 34 | 1002.4 |
| 20260505211258 | 77 | 267 | 4.3 | 10.4 | 0.00 | 0.00 | 0.00 | 33 | 1002.6 |
| 20260505210754 | 77 | 221 | 4.3 | 6.1 | 0.00 | 0.00 | 0.00 | 34 | 1002.7 |
| 20260505210252 | 77 | 271 | 3.5 | 8.7 | 0.00 | 0.00 | 0.00 | 34 | 1002.4 |
| 20260505205749 | 78 | 255 | 4.3 | 9.6 | 0.00 | 0.00 | 0.00 | 34 | 1002.4 |
| 20260505205247 | 77 | 258 | 4.3 | 9.6 | 0.00 | 0.00 | 0.00 | 34 | 1002.3 |
| 20260505204743 | 77 | 229 | 3.5 | 5.2 | 0.00 | 0.00 | 0.00 | 34 | 1002.5 |
| 20260505204241 | 77 | 255 | 2.6 | 9.6 | 0.00 | 0.00 | 0.00 | 34 | 1002.3 |
| 20260505203738 | 77 | 174 | 4.3 | 7.8 | 0.00 | 0.00 | 0.00 | 35 | 1002.6 |
| 20260505203235 | 77 | 244 | 6.1 | 10.4 | 0.00 | 0.00 | 0.00 | 34 | 1002.6 |
| 20260505202731 | 77 | 226 | 9.6 | 13.0 | 0.00 | 0.00 | 0.00 | 34 | 1002.4 |
| 20260505202227 | 77 | 203 | 5.2 | 9.6 | 0.00 | 0.00 | 0.00 | 33 | 1002.3 |
| 20260505201723 | 77 | 268 | 6.1 | 7.8 | 0.00 | 0.00 | 0.00 | 34 | 1002.3 |
| 20260505201222 | 77 | 205 | 3.5 | 11.3 | 0.00 | 0.00 | 0.00 | 34 | 1002.4 |
| 20260505200719 | 77 | 245 | 3.5 | 13.9 | 0.00 | 0.00 | 0.00 | 34 | 1002.5 |
| 20260505200216 | 78 | 250 | 2.6 | 11.3 | 0.00 | 0.00 | 0.00 | 34 | 1002.5 |
| 20260505195712 | 79 | 249 | 7.8 | 13.9 | 0.00 | 0.00 | 0.00 | 32 | 1002.6 |
| 20260505195209 | 79 | 134 | 6.1 | 17.4 | 0.00 | 0.00 | 0.00 | 33 | 1002.5 |
| 20260505194707 | 79 | 301 | 8.7 | 11.3 | 0.00 | 0.00 | 0.00 | 33 | 1002.7 |
| 20260505194203 | 79 | 101 | 2.6 | 6.1 | 0.00 | 0.00 | 0.00 | 34 | 1002.5 |
| 20260505193659 | 80 | 258 | 0.0 | 7.8 | 0.00 | 0.00 | 0.00 | 33 | 1002.7 |
| 20260505193156 | 80 | 102 | 4.3 | 16.5 | 0.00 | 0.00 | 0.00 | 34 | 1002.5 |
| 20260505192655 | 80 | 218 | 3.5 | 6.1 | 0.00 | 0.00 | 0.00 | 33 | 1002.7 |
| 20260505192152 | 80 | 251 | 5.2 | 13.0 | 0.00 | 0.00 | 0.00 | 34 | 1002.7 |
| 20260505191650 | 78 | 303 | 3.5 | 9.6 | 0.00 | 0.00 | 0.00 | 35 | 1002.8 |
| 20260505191148 | 78 | 225 | 4.3 | 10.4 | 0.00 | 0.00 | 0.00 | 36 | 1002.7 |
| 20260505190644 | 78 | 239 | 5.2 | 12.2 | 0.00 | 0.00 | 0.00 | 36 | 1003.1 |
| 20260505190143 | 78 | 238 | 10.4 | 13.0 | 0.00 | 0.00 | 0.00 | 35 | 1003.2 |
| 20260505185641 | 78 | 160 | 0.9 | 13.0 | 0.00 | 0.00 | 0.00 | 36 | 1003.1 |
| 20260505185137 | 79 | 227 | 6.1 | 10.4 | 0.00 | 0.00 | 0.00 | 35 | 1003.2 |
| 20260505184633 | 79 | 209 | 1.7 | 11.3 | 0.00 | 0.00 | 0.00 | 36 | 1003.4 |
| 20260505184131 | 79 | 260 | 1.7 | 7.8 | 0.00 | 0.00 | 0.00 | 36 | 1003.3 |
| 20260505183627 | 80 | 187 | 7.8 | 13.0 | 0.00 | 0.00 | 0.00 | 34 | 1003.3 |
| 20260505183125 | 79 | 183 | 3.5 | 12.2 | 0.00 | 0.00 | 0.00 | 37 | 1003.6 |
| 20260505182621 | 79 | 243 | 9.6 | 18.2 | 0.00 | 0.00 | 0.00 | 36 | 1003.6 |
| 20260505182118 | 80 | 226 | 4.3 | 8.7 | 0.00 | 0.00 | 0.00 | 36 | 1003.4 |
| 20260505181615 | 78 | 274 | 3.5 | 6.1 | 0.00 | 0.00 | 0.00 | 38 | 1003.6 |
| 20260505181112 | 79 | 209 | 4.3 | 7.0 | 0.00 | 0.00 | 0.00 | 37 | 1003.8 |
| 20260505180608 | 79 | 289 | 5.2 | 6.1 | 0.00 | 0.00 | 0.00 | 36 | 1003.7 |
| 20260505180106 | 78 | 189 | 3.5 | 7.8 | 0.00 | 0.00 | 0.00 | 38 | 1003.8 |
| 20260505175601 | 78 | 249 | 3.5 | 8.7 | 0.00 | 0.00 | 0.00 | 37 | 1004.0 |
| 20260505175058 | 77 | 229 | 5.2 | 10.4 | 0.00 | 0.00 | 0.00 | 37 | 1003.9 |
| 20260505174555 | 78 | 253 | 7.8 | 11.3 | 0.00 | 0.00 | 0.00 | 36 | 1004.2 |
| 20260505174050 | 78 | 181 | 2.6 | 9.6 | 0.00 | 0.00 | 0.00 | 39 | 1004.1 |
| 20260505173548 | 79 | 203 | 2.6 | 5.2 | 0.00 | 0.00 | 0.00 | 37 | 1004.1 |
| 20260505173044 | 78 | 120 | 2.6 | 7.8 | 0.00 | 0.00 | 0.00 | 37 | 1004.3 |
| 20260505172542 | 77 | 190 | 7.0 | 11.3 | 0.00 | 0.00 | 0.00 | 37 | 1004.5 |
| 20260505172038 | 76 | 250 | 5.2 | 11.3 | 0.00 | 0.00 | 0.00 | 38 | 1004.5 |
| 20260505171533 | 76 | 196 | 2.6 | 7.8 | 0.00 | 0.00 | 0.00 | 38 | 1004.4 |
| 20260505171030 | 76 | 220 | 4.3 | 15.6 | 0.00 | 0.00 | 0.00 | 39 | 1004.5 |
| 20260505170527 | 76 | 162 | 1.7 | 12.2 | 0.00 | 0.00 | 0.00 | 38 | 1004.6 |
| 20260505170023 | 76 | 273 | 7.8 | 9.6 | 0.00 | 0.00 | 0.00 | 38 | 1004.9 |
| 20260505165519 | 76 | 268 | 11.3 | 13.0 | 0.00 | 0.00 | 0.00 | 38 | 1004.8 |
| 20260505165015 | 76 | 336 | 2.6 | 9.6 | 0.00 | 0.00 | 0.00 | 39 | 1005.0 |
| 20260505164511 | 76 | 213 | 0.0 | 8.7 | 0.00 | 0.00 | 0.00 | 39 | 1005.1 |
| 20260505164009 | 76 | 276 | 8.7 | 11.3 | 0.00 | 0.00 | 0.00 | 40 | 1005.1 |
| 20260505163507 | 75 | 276 | 7.0 | 14.8 | 0.00 | 0.00 | 0.00 | 39 | 1005.1 |
| 20260505163003 | 75 | 264 | 3.5 | 7.8 | 0.00 | 0.00 | 0.00 | 39 | 1005.2 |
| 20260505162457 | 74 | 156 | 3.5 | 5.2 | 0.00 | 0.00 | 0.00 | 40 | 1005.2 |
| 20260505161953 | 74 | 258 | 4.3 | 13.9 | 0.00 | 0.00 | 0.00 | 39 | 1005.4 |
| 20260505161450 | 74 | 143 | 3.5 | 10.4 | 0.00 | 0.00 | 0.00 | 42 | 1005.7 |
| 20260505160948 | 75 | 272 | 8.7 | 11.3 | 0.00 | 0.00 | 0.00 | 40 | 1005.6 |
| 20260505160446 | 74 | 207 | 3.5 | 8.7 | 0.00 | 0.00 | 0.00 | 41 | 1005.6 |
| 20260505152922 | 70 | 150 | 5.2 | 6.1 | 0.00 | 0.00 | 0.00 | 44 | 1006.2 |
| 20260505152419 | 70 | 258 | 3.5 | 5.2 | 0.00 | 0.00 | 0.00 | 47 | 1006.4 |
| 20260505151919 | 69 | 338 | 0.0 | 3.5 | 0.00 | 0.00 | 0.00 | 46 | 1006.7 |
| 20260505151415 | 68 | 247 | 2.6 | 8.7 | 0.00 | 0.00 | 0.00 | 48 | 1006.4 |
| 20260505150913 | 66 | 139 | 5.2 | 6.1 | 0.00 | 0.00 | 0.00 | 49 | 1006.7 |
| 20260505150410 | 65 | 147 | 2.6 | 7.0 | 0.00 | 0.00 | 0.00 | 49 | 1006.7 |
| 20260505140334 | 64 | 175 | 1.7 | 4.3 | 0.00 | 0.00 | 0.00 | 51 | 1006.7 |